Time,TemperatureF,DewpointF,PressureIn,WindDirection,WindDirectionDegrees,WindSpeedMPH,WindSpeedGustMPH,Humidity,HourlyPrecipIn,Conditions,Clouds,dailyrainin,SoftwareType,DateUTC
2013-03-24 00:03:00,-999.0,-99.9,29.92,ENE,57,9.0,9.0,-999,-99.99,,,-99.99,,2013-03-24 04:03:00,
2013-03-24 00:13:00,52.0,-99.9,29.92,NE,56,9.0,11.0,-999,-99.99,,,-99.99,,2013-03-24 04:13:00,
2013-03-24 00:23:00,-999.0,-99.9,29.92,ENE,62,10.0,11.0,-999,-99.99,,,-99.99,,2013-03-24 04:23:00,
2013-03-24 00:33:00,-999.0,-99.9,29.91,NE,53,11.0,12.0,-999,-99.99,,,-99.99,,2013-03-24 04:33:00,
2013-03-24 00:43:00,-999.0,-99.9,29.90,ENE,59,11.0,12.0,-999,-99.99,,,-99.99,,2013-03-24 04:43:00,
2013-03-24 00:53:00,-999.0,-99.9,29.89,NE,55,11.0,13.0,-999,-99.99,,,-99.99,,2013-03-24 04:53:00,
2013-03-24 01:03:00,-999.0,-99.9,29.89,ENE,61,12.0,14.0,-999,-99.99,,,-99.99,,2013-03-24 05:03:00,
2013-03-24 01:13:00,-999.0,-99.9,29.89,ENE,57,11.0,12.0,-999,-99.99,,,-99.99,,2013-03-24 05:13:00,
2013-03-24 01:23:00,-999.0,-99.9,29.90,ENE,60,10.0,12.0,-999,-99.99,,,-99.99,,2013-03-24 05:23:00,
2013-03-24 01:33:00,-999.0,-99.9,29.90,ENE,63,11.0,13.0,-999,-99.99,,,-99.99,,2013-03-24 05:33:00,
2013-03-24 01:43:00,-999.0,-99.9,29.89,ENE,63,11.0,13.0,-999,-99.99,,,-99.99,,2013-03-24 05:43:00,
2013-03-24 01:52:00,-999.0,-99.9,29.89,ENE,58,12.0,13.0,-999,-99.99,,,-99.99,,2013-03-24 05:52:00,
2013-03-24 02:02:00,-999.0,-99.9,29.88,ENE,59,11.0,13.0,-999,-99.99,,,-99.99,,2013-03-24 06:02:00,
2013-03-24 02:12:00,53.0,-99.9,29.88,NE,47,12.0,13.0,-999,-99.99,,,-99.99,,2013-03-24 06:12:00,
2013-03-24 02:22:00,-999.0,-99.9,29.87,NE,50,13.0,14.0,-999,-99.99,,,-99.99,,2013-03-24 06:22:00,
2013-03-24 02:32:00,-999.0,-99.9,29.88,NE,47,13.0,14.0,-999,-99.99,,,-99.99,,2013-03-24 06:32:00,
2013-03-24 02:43:00,-999.0,-99.9,29.87,NE,46,13.0,15.0,-999,-99.99,,,-99.99,,2013-03-24 06:43:00,
2013-03-24 02:52:00,-999.0,-99.9,29.88,NE,49,12.0,13.0,-999,-99.99,,,-99.99,,2013-03-24 06:52:00,
2013-03-24 03:02:00,-999.0,-99.9,29.87,NE,44,12.0,13.0,-999,-99.99,,,-99.99,,2013-03-24 07:02:00,
2013-03-24 03:12:00,-999.0,-99.9,29.87,NE,46,12.0,14.0,-999,-99.99,,,-99.99,,2013-03-24 07:12:00,
2013-03-24 03:22:00,-999.0,-99.9,29.86,NE,46,13.0,14.0,-999,-99.99,,,-99.99,,2013-03-24 07:22:00,
2013-03-24 03:32:00,-999.0,-99.9,29.84,NE,49,17.0,18.0,-999,-99.99,,,-99.99,,2013-03-24 07:32:00,
2013-03-24 03:42:00,-999.0,-99.9,29.83,NE,46,17.0,19.0,-999,-99.99,,,-99.99,,2013-03-24 07:42:00,
2013-03-24 03:52:00,-999.0,-99.9,29.83,NE,46,18.0,20.0,-999,-99.99,,,-99.99,,2013-03-24 07:52:00,
2013-03-24 04:03:00,-999.0,-99.9,29.82,NE,46,17.0,19.0,-999,-99.99,,,-99.99,,2013-03-24 08:03:00,
2013-03-24 04:12:00,-999.0,-99.9,29.80,NE,41,19.0,21.0,-999,-99.99,,,-99.99,,2013-03-24 08:12:00,
2013-03-24 04:22:00,-999.0,-99.9,29.80,NE,34,17.0,20.0,-999,-99.99,,,-99.99,,2013-03-24 08:22:00,
2013-03-24 04:32:00,-999.0,-99.9,29.80,NNE,33,15.0,18.0,-999,-99.99,,,-99.99,,2013-03-24 08:32:00,
2013-03-24 04:42:00,-999.0,-99.9,29.79,NE,38,15.0,19.0,-999,-99.99,,,-99.99,,2013-03-24 08:42:00,
2013-03-24 04:52:00,-999.0,-99.9,29.79,NE,38,16.0,18.0,-999,-99.99,,,-99.99,,2013-03-24 08:52:00,
2013-03-24 05:02:00,-999.0,-99.9,29.78,NE,42,18.0,19.0,-999,-99.99,,,-99.99,,2013-03-24 09:02:00,
2013-03-24 05:12:00,-999.0,-99.9,29.78,NE,43,19.0,21.0,-999,-99.99,,,-99.99,,2013-03-24 09:12:00,
2013-03-24 05:22:00,-999.0,-99.9,29.78,NE,42,19.0,21.0,-999,-99.99,,,-99.99,,2013-03-24 09:22:00,
2013-03-24 05:33:00,-999.0,-99.9,29.76,NE,46,22.0,26.0,-999,-99.99,,,-99.99,,2013-03-24 09:33:00,
2013-03-24 05:43:00,-999.0,-99.9,29.75,NE,38,23.0,27.0,-999,-99.99,,,-99.99,,2013-03-24 09:43:00,
2013-03-24 05:53:00,-999.0,-99.9,29.73,NE,39,25.0,28.0,-999,-99.99,,,-99.99,,2013-03-24 09:53:00,
2013-03-24 06:03:00,-999.0,-99.9,29.72,NE,39,25.0,28.0,-999,-99.99,,,-99.99,,2013-03-24 10:03:00,
2013-03-24 06:13:00,-999.0,-99.9,29.72,NE,38,25.0,30.0,-999,-99.99,,,-99.99,,2013-03-24 10:13:00,
2013-03-24 06:23:00,-999.0,-99.9,29.71,NE,42,26.0,30.0,-999,-99.99,,,-99.99,,2013-03-24 10:23:00,
2013-03-24 06:33:00,-999.0,-99.9,29.71,NE,38,26.0,30.0,-999,-99.99,,,-99.99,,2013-03-24 10:33:00,
2013-03-24 06:42:00,-999.0,-99.9,29.72,NE,36,24.0,30.0,-999,-99.99,,,-99.99,,2013-03-24 10:42:00,
2013-03-24 06:53:00,-999.0,-99.9,29.71,NNE,29,26.0,29.0,-999,-99.99,,,-99.99,,2013-03-24 10:53:00,
2013-03-24 07:03:00,-999.0,-99.9,29.71,NNE,31,27.0,31.0,-999,-99.99,,,-99.99,,2013-03-24 11:03:00,
2013-03-24 07:12:00,-999.0,-99.9,29.73,NNE,21,22.0,28.0,-999,-99.99,,,-99.99,,2013-03-24 11:12:00,
2013-03-24 07:22:00,-999.0,-99.9,29.72,NNE,19,23.0,28.0,-999,-99.99,,,-99.99,,2013-03-24 11:22:00,
2013-03-24 07:33:00,-999.0,-99.9,29.72,North,3,13.0,16.0,-999,-99.99,,,-99.99,,2013-03-24 11:33:00,
2013-03-24 07:43:00,-999.0,-99.9,29.73,North,355,14.0,19.0,-999,-99.99,,,-99.99,,2013-03-24 11:43:00,
2013-03-24 07:52:00,-999.0,-99.9,29.74,North,2,15.0,19.0,-999,-99.99,,,-99.99,,2013-03-24 11:52:00,
2013-03-24 08:03:00,-999.0,-99.9,29.74,North,11,12.0,15.0,-999,-99.99,,,-99.99,,2013-03-24 12:03:00,
2013-03-24 08:13:00,-999.0,-99.9,29.72,NNE,14,18.0,24.0,-999,-99.99,,,-99.99,,2013-03-24 12:13:00,
2013-03-24 08:23:00,-999.0,-99.9,29.70,NNE,19,23.0,29.0,-999,-99.99,,,-99.99,,2013-03-24 12:23:00,
2013-03-24 08:33:00,-999.0,-99.9,29.70,NNE,26,23.0,27.0,-999,-99.99,,,-99.99,,2013-03-24 12:33:00,
2013-03-24 08:42:00,49.0,-99.9,29.68,NNE,22,27.0,31.0,-999,-99.99,,,-99.99,,2013-03-24 12:42:00,
2013-03-24 08:53:00,-999.0,-99.9,29.69,NNE,16,25.0,33.0,-999,-99.99,,,-99.99,,2013-03-24 12:53:00,
2013-03-24 09:03:00,-999.0,-99.9,29.70,North,10,22.0,27.0,-999,-99.99,,,-99.99,,2013-03-24 13:03:00,
2013-03-24 09:13:00,49.0,-99.9,29.71,North,9,16.0,22.0,-999,-99.99,,,-99.99,,2013-03-24 13:13:00,
2013-03-24 09:23:00,-999.0,-99.9,29.70,NNE,13,20.0,29.0,-999,-99.99,,,-99.99,,2013-03-24 13:23:00,
2013-03-24 09:33:00,-999.0,-99.9,29.72,NNW,338,10.0,15.0,-999,-99.99,,,-99.99,,2013-03-24 13:33:00,
2013-03-24 09:43:00,48.0,-99.9,29.70,North,11,13.0,17.0,-999,-99.99,,,-99.99,,2013-03-24 13:43:00,
2013-03-24 09:53:00,-999.0,-99.9,29.69,NNE,25,19.0,23.0,-999,-99.99,,,-99.99,,2013-03-24 13:53:00,
2013-03-24 10:03:00,-999.0,-99.9,29.68,NNE,27,21.0,25.0,-999,-99.99,,,-99.99,,2013-03-24 14:03:00,
2013-03-24 10:13:00,-999.0,-99.9,29.68,NNE,33,21.0,26.0,-999,-99.99,,,-99.99,,2013-03-24 14:13:00,
2013-03-24 10:22:00,-999.0,-99.9,29.66,NE,36,28.0,35.0,-999,-99.99,,,-99.99,,2013-03-24 14:22:00,
2013-03-24 10:33:00,-999.0,-99.9,29.63,NE,34,31.0,36.0,-999,-99.99,,,-99.99,,2013-03-24 14:33:00,
2013-03-24 10:43:00,52.0,-99.9,29.63,NE,47,28.0,33.0,-999,-99.99,,,-99.99,,2013-03-24 14:43:00,
2013-03-24 10:53:00,-999.0,-99.9,29.60,ENE,67,35.0,42.0,-999,-99.99,,,-99.99,,2013-03-24 14:53:00,
2013-03-24 11:02:00,-999.0,-99.9,29.60,ENE,70,31.0,40.0,-999,-99.99,,,-99.99,,2013-03-24 15:02:00,
2013-03-24 11:13:00,53.0,-99.9,29.57,ENE,71,35.0,44.0,-999,-99.99,,,-99.99,,2013-03-24 15:13:00,
2013-03-24 11:23:00,-999.0,-99.9,29.57,ENE,65,32.0,38.0,-999,-99.99,,,-99.99,,2013-03-24 15:23:00,
2013-03-24 11:33:00,-999.0,-99.9,29.58,ENE,63,29.0,34.0,-999,-99.99,,,-99.99,,2013-03-24 15:33:00,
2013-03-24 11:43:00,54.0,-99.9,29.58,NE,53,22.0,25.0,-999,-99.99,,,-99.99,,2013-03-24 15:43:00,
2013-03-24 11:53:00,-999.0,-99.9,29.56,ENE,62,27.0,32.0,-999,-99.99,,,-99.99,,2013-03-24 15:53:00,
2013-03-24 12:03:00,-999.0,-99.9,29.53,ENE,63,28.0,32.0,-999,-99.99,,,-99.99,,2013-03-24 16:03:00,
2013-03-24 12:13:00,-999.0,-99.9,29.54,NE,41,17.0,26.0,-999,-99.99,,,-99.99,,2013-03-24 16:13:00,
2013-03-24 12:23:00,-999.0,-99.9,29.55,NE,41,16.0,18.0,-999,-99.99,,,-99.99,,2013-03-24 16:23:00,
2013-03-24 12:33:00,-999.0,-99.9,29.54,NE,50,19.0,22.0,-999,-99.99,,,-99.99,,2013-03-24 16:33:00,
2013-03-24 12:43:00,-999.0,-99.9,29.54,NE,43,16.0,19.0,-999,-99.99,,,-99.99,,2013-03-24 16:43:00,
2013-03-24 12:53:00,-999.0,-99.9,29.53,NE,40,17.0,21.0,-999,-99.99,,,-99.99,,2013-03-24 16:53:00,
2013-03-24 13:03:00,-999.0,-99.9,29.51,NE,34,16.0,18.0,-999,-99.99,,,-99.99,,2013-03-24 17:03:00,
2013-03-24 13:12:00,56.0,-99.9,29.50,ENE,60,9.0,11.0,-999,-99.99,,,-99.99,,2013-03-24 17:12:00,
2013-03-24 13:23:00,-999.0,-99.9,29.49,ESE,104,18.0,23.0,-999,-99.99,,,-99.99,,2013-03-24 17:23:00,
2013-03-24 13:33:00,-999.0,-99.9,29.48,ESE,110,21.0,28.0,-999,-99.99,,,-99.99,,2013-03-24 17:33:00,
2013-03-24 13:43:00,58.0,-99.9,29.48,ESE,112,21.0,25.0,-999,-99.99,,,-99.99,,2013-03-24 17:43:00,
2013-03-24 13:53:00,-999.0,-99.9,29.48,ESE,113,20.0,25.0,-999,-99.99,,,-99.99,,2013-03-24 17:53:00,
2013-03-24 14:03:00,-999.0,-99.9,29.47,ESE,116,17.0,20.0,-999,-99.99,,,-99.99,,2013-03-24 18:03:00,
2013-03-24 14:13:00,-999.0,-99.9,29.47,ESE,114,15.0,17.0,-999,-99.99,,,-99.99,,2013-03-24 18:13:00,
2013-03-24 14:22:00,-999.0,-99.9,29.47,ESE,123,14.0,17.0,-999,-99.99,,,-99.99,,2013-03-24 18:22:00,
2013-03-24 14:33:00,-999.0,-99.9,29.47,SE,130,13.0,15.0,-999,-99.99,,,-99.99,,2013-03-24 18:33:00,
2013-03-24 14:43:00,-999.0,-99.9,29.46,ESE,112,3.0,7.0,-999,-99.99,,,-99.99,,2013-03-24 18:43:00,
2013-03-24 14:53:00,-999.0,-99.9,29.47,NW,313,4.0,5.0,-999,-99.99,,,-99.99,,2013-03-24 18:53:00,
2013-03-24 15:03:00,-999.0,-99.9,29.47,WNW,301,4.0,5.0,-999,-99.99,,,-99.99,,2013-03-24 19:03:00,
2013-03-24 15:12:00,60.0,-99.9,29.46,WSW,246,3.0,7.0,-999,-99.99,,,-99.99,,2013-03-24 19:12:00,
2013-03-24 15:23:00,-999.0,-99.9,29.44,West,269,1.0,4.0,-999,-99.99,,,-99.99,,2013-03-24 19:23:00,
2013-03-24 15:33:00,-999.0,-99.9,29.43,SSW,204,4.0,6.0,-999,-99.99,,,-99.99,,2013-03-24 19:33:00,
2013-03-24 15:43:00,-999.0,-99.9,29.43,WSW,255,4.0,6.0,-999,-99.99,,,-99.99,,2013-03-24 19:43:00,
2013-03-24 15:53:00,-999.0,-99.9,29.43,WNW,282,6.0,8.0,-999,-99.99,,,-99.99,,2013-03-24 19:53:00,
2013-03-24 16:03:00,-999.0,-99.9,29.42,NW,316,5.0,6.0,-999,-99.99,,,-99.99,,2013-03-24 20:03:00,
2013-03-24 16:13:00,60.0,-99.9,29.42,WNW,302,6.0,8.0,-999,-99.99,,,-99.99,,2013-03-24 20:13:00,
2013-03-24 16:22:00,-999.0,-99.9,29.42,NW,307,8.0,10.0,-999,-99.99,,,-99.99,,2013-03-24 20:22:00,
2013-03-24 16:33:00,-999.0,-99.9,29.43,WNW,303,9.0,13.0,-999,-99.99,,,-99.99,,2013-03-24 20:33:00,
2013-03-24 16:43:00,-999.0,-99.9,29.44,NW,304,12.0,17.0,-999,-99.99,,,-99.99,,2013-03-24 20:43:00,
2013-03-24 16:53:00,-999.0,-99.9,29.44,NW,304,11.0,15.0,-999,-99.99,,,-99.99,,2013-03-24 20:53:00,
2013-03-24 17:03:00,-999.0,-99.9,29.44,NW,308,12.0,17.0,-999,-99.99,,,-99.99,,2013-03-24 21:03:00,
2013-03-24 17:12:00,-999.0,-99.9,29.44,NW,309,14.0,20.0,-999,-99.99,,,-99.99,,2013-03-24 21:12:00,
2013-03-24 17:23:00,-999.0,-99.9,29.45,WNW,294,13.0,19.0,-999,-99.99,,,-99.99,,2013-03-24 21:23:00,
2013-03-24 17:33:00,-999.0,-99.9,29.45,WNW,300,17.0,24.0,-999,-99.99,,,-99.99,,2013-03-24 21:33:00,
2013-03-24 17:43:00,51.0,-99.9,29.46,NW,306,13.0,20.0,-999,-99.99,,,-99.99,,2013-03-24 21:43:00,
2013-03-24 17:53:00,-999.0,-99.9,29.46,NW,304,16.0,22.0,-999,-99.99,,,-99.99,,2013-03-24 21:53:00,
2013-03-24 18:03:00,-999.0,-99.9,29.47,WNW,301,11.0,17.0,-999,-99.99,,,-99.99,,2013-03-24 22:03:00,
2013-03-24 18:13:00,51.0,-99.9,29.48,NW,305,11.0,16.0,-999,-99.99,,,-99.99,,2013-03-24 22:13:00,
2013-03-24 18:23:00,-999.0,-99.9,29.49,WNW,299,13.0,20.0,-999,-99.99,,,-99.99,,2013-03-24 22:23:00,
2013-03-24 18:33:00,-999.0,-99.9,29.50,WNW,297,12.0,17.0,-999,-99.99,,,-99.99,,2013-03-24 22:33:00,
2013-03-24 18:43:00,-999.0,-99.9,29.51,WNW,298,15.0,22.0,-999,-99.99,,,-99.99,,2013-03-24 22:43:00,
2013-03-24 18:53:00,-999.0,-99.9,29.52,NW,304,12.0,19.0,-999,-99.99,,,-99.99,,2013-03-24 22:53:00,
2013-03-24 19:03:00,-999.0,-99.9,29.52,NW,309,13.0,18.0,-999,-99.99,,,-99.99,,2013-03-24 23:03:00,
2013-03-24 19:12:00,-999.0,-99.9,29.52,WNW,298,13.0,18.0,-999,-99.99,,,-99.99,,2013-03-24 23:12:00,
2013-03-24 19:23:00,-999.0,-99.9,29.53,WNW,300,12.0,17.0,-999,-99.99,,,-99.99,,2013-03-24 23:23:00,
2013-03-24 19:32:00,-999.0,-99.9,29.53,NW,312,11.0,16.0,-999,-99.99,,,-99.99,,2013-03-24 23:32:00,
2013-03-24 19:43:00,-999.0,-99.9,29.54,WNW,295,13.0,19.0,-999,-99.99,,,-99.99,,2013-03-24 23:43:00,
2013-03-24 19:53:00,-999.0,-99.9,29.54,WNW,303,13.0,17.0,-999,-99.99,,,-99.99,,2013-03-24 23:53:00,
2013-03-24 20:02:00,-999.0,-99.9,29.55,NW,308,13.0,18.0,-999,-99.99,,,-99.99,,2013-03-25 00:02:00,
2013-03-24 20:12:00,46.0,-99.9,29.56,NW,313,15.0,21.0,-999,-99.99,,,-99.99,,2013-03-25 00:12:00,
2013-03-24 20:23:00,-999.0,-99.9,29.56,NW,314,13.0,19.0,-999,-99.99,,,-99.99,,2013-03-25 00:23:00,
2013-03-24 20:33:00,-999.0,-99.9,29.56,NW,320,11.0,15.0,-999,-99.99,,,-99.99,,2013-03-25 00:33:00,
2013-03-24 20:43:00,-999.0,-99.9,29.56,WNW,301,10.0,18.0,-999,-99.99,,,-99.99,,2013-03-25 00:43:00,
2013-03-24 20:53:00,-999.0,-99.9,29.57,WNW,291,14.0,18.0,-999,-99.99,,,-99.99,,2013-03-25 00:53:00,
2013-03-24 21:02:00,-999.0,-99.9,29.57,NW,308,8.0,11.0,-999,-99.99,,,-99.99,,2013-03-25 01:02:00,
2013-03-24 21:12:00,-999.0,-99.9,29.59,WNW,293,7.0,12.0,-999,-99.99,,,-99.99,,2013-03-25 01:12:00,
2013-03-24 21:22:00,-999.0,-99.9,29.59,WNW,297,11.0,16.0,-999,-99.99,,,-99.99,,2013-03-25 01:22:00,
2013-03-24 21:32:00,-999.0,-99.9,29.59,NW,312,9.0,14.0,-999,-99.99,,,-99.99,,2013-03-25 01:32:00,
2013-03-24 21:42:00,46.0,-99.9,29.60,WNW,302,9.0,13.0,-999,-99.99,,,-99.99,,2013-03-25 01:42:00,
2013-03-24 21:53:00,-999.0,-99.9,29.60,NW,309,9.0,12.0,-999,-99.99,,,-99.99,,2013-03-25 01:53:00,
2013-03-24 22:02:00,-999.0,-99.9,29.61,WNW,302,10.0,13.0,-999,-99.99,,,-99.99,,2013-03-25 02:02:00,
2013-03-24 22:12:00,-999.0,-99.9,29.61,WNW,290,8.0,10.0,-999,-99.99,,,-99.99,,2013-03-25 02:12:00,
2013-03-24 22:23:00,-999.0,-99.9,29.61,WNW,298,7.0,11.0,-999,-99.99,,,-99.99,,2013-03-25 02:23:00,
2013-03-24 22:33:00,-999.0,-99.9,29.62,WNW,286,7.0,10.0,-999,-99.99,,,-99.99,,2013-03-25 02:33:00,
2013-03-24 22:43:00,-999.0,-99.9,29.62,WNW,291,9.0,12.0,-999,-99.99,,,-99.99,,2013-03-25 02:43:00,
2013-03-24 22:52:00,-999.0,-99.9,29.62,NW,308,8.0,12.0,-999,-99.99,,,-99.99,,2013-03-25 02:52:00,
2013-03-24 23:03:00,-999.0,-99.9,29.62,NW,320,11.0,13.0,-999,-99.99,,,-99.99,,2013-03-25 03:03:00,
2013-03-24 23:13:00,-999.0,-99.9,29.61,NW,324,7.0,9.0,-999,-99.99,,,-99.99,,2013-03-25 03:13:00,
2013-03-24 23:23:00,-999.0,-99.9,29.61,NW,320,9.0,11.0,-999,-99.99,,,-99.99,,2013-03-25 03:23:00,
2013-03-24 23:34:00,-999.0,-99.9,29.60,NW,311,7.0,10.0,-999,-99.99,,,-99.99,,2013-03-25 03:34:00,
2013-03-24 23:43:00,-999.0,-99.9,29.60,NNW,330,8.0,11.0,-999,-99.99,,,-99.99,,2013-03-25 03:43:00,
2013-03-24 23:53:00,-999.0,-99.9,29.59,North,356,7.0,9.0,-999,-99.99,,,-99.99,,2013-03-25 03:53:00,